{"data":{"norad_id":67234,"epoch":"2026-09-20T22:57:01.570752Z","epoch_age_seconds":63662,"freshness":"FRESH","line1":"1 67234U 25310A   26263.95626818  .00000069  00000+0  17400-4 0  9997","line2":"2 67234  97.9688 269.8809 0001196  80.4309 279.7035 14.75911860 39753","mean_motion":14.7591186,"eccentricity":0.0001196,"inclination_deg":97.9688,"raan_deg":269.8809,"arg_perigee_deg":80.4309,"mean_anomaly_deg":279.7035,"bstar":1.74e-5,"rev_number":3975,"period_min":97.566801854956,"perigee_km":641.41854394834,"apogee_km":643.09782247616,"semimajor_km":7020.3951832122,"source":"CELESTRAK","updated_at":"2026-09-21T09:00:16.507647Z"}}